Year,Month,Day,Hour,Minute,Value (Times are PST for temperature in C)
2016,03,13,13,07,7.00
2016,03,13,13,08,7.00
2016,03,13,13,09,7.10
2016,03,13,13,10,7.20
2016,03,13,13,11,7.20
2016,03,13,13,12,7.20
2016,03,13,13,13,7.20
2016,03,13,13,14,7.20
2016,03,13,13,15,7.20
2016,03,13,13,16,7.20
2016,03,13,13,17,7.20
2016,03,13,13,18,7.20
2016,03,13,13,19,7.20
2016,03,13,13,20,7.20
2016,03,13,13,21,7.20
2016,03,13,13,22,7.20
2016,03,13,13,23,7.20
2016,03,13,13,24,7.20
2016,03,13,13,25,7.20
2016,03,13,13,26,7.20
2016,03,13,13,27,7.20
2016,03,13,13,28,7.20
2016,03,13,13,29,7.20
2016,03,13,13,30,7.20
2016,03,13,13,31,7.20
2016,03,13,13,32,7.20
2016,03,13,13,33,7.20
2016,03,13,13,34,7.20
2016,03,13,13,35,7.20
2016,03,13,13,36,7.20
2016,03,13,13,37,7.30
2016,03,13,13,38,7.30
2016,03,13,13,39,7.30
2016,03,13,13,40,7.30
2016,03,13,13,41,7.30
2016,03,13,13,42,7.30
2016,03,13,13,43,7.30
2016,03,13,13,44,7.30
2016,03,13,13,45,7.40
2016,03,13,13,46,7.40
2016,03,13,13,47,7.40
2016,03,13,13,48,7.40
2016,03,13,13,49,7.40
2016,03,13,13,50,7.50
2016,03,13,13,51,7.50
2016,03,13,13,52,7.60
2016,03,13,13,53,7.60
2016,03,13,13,54,7.60
2016,03,13,13,55,7.60
2016,03,13,13,56,7.70
2016,03,13,13,57,7.70
2016,03,13,13,58,7.70
2016,03,13,13,59,7.70
2016,03,13,14,00,7.80
2016,03,13,14,01,7.80
2016,03,13,14,02,7.90
2016,03,13,14,03,7.90
2016,03,13,14,04,7.90
2016,03,13,14,05,8.00
2016,03,13,14,06,8.00
2016,03,13,14,07,8.10
2016,03,13,14,08,8.10
2016,03,13,14,09,8.10
2016,03,13,14,10,8.20
2016,03,13,14,11,8.20
2016,03,13,14,12,8.20
2016,03,13,14,13,8.20
2016,03,13,14,14,8.20
2016,03,13,14,15,8.20
2016,03,13,14,16,8.20
2016,03,13,14,17,8.20
2016,03,13,14,18,8.30
2016,03,13,14,19,8.30
2016,03,13,14,20,8.30
2016,03,13,14,21,8.40
2016,03,13,14,22,8.40
2016,03,13,14,23,8.50
2016,03,13,14,24,8.50
2016,03,13,14,25,8.60
2016,03,13,14,26,8.60
2016,03,13,14,27,8.70
2016,03,13,14,28,8.70
2016,03,13,14,29,8.80
2016,03,13,14,30,8.80
2016,03,13,14,31,8.80
2016,03,13,14,32,8.90
2016,03,13,14,33,8.90
2016,03,13,14,34,8.90
2016,03,13,14,35,8.90
2016,03,13,14,36,9.00
2016,03,13,14,37,9.00
2016,03,13,14,38,9.00
2016,03,13,14,39,9.00
2016,03,13,14,40,9.00
2016,03,13,14,41,9.00
2016,03,13,14,42,9.00
2016,03,13,14,43,8.90
2016,03,13,14,44,8.90
2016,03,13,14,45,8.90
2016,03,13,14,46,8.90
2016,03,13,14,47,9.00
2016,03,13,14,48,9.00
2016,03,13,14,49,9.00
2016,03,13,14,50,9.10
2016,03,13,14,51,9.10
2016,03,13,14,52,9.20
2016,03,13,14,53,9.20
2016,03,13,14,54,9.10
2016,03,13,14,55,9.10
2016,03,13,14,56,9.10
2016,03,13,14,57,9.10
2016,03,13,14,58,9.10
2016,03,13,14,59,9.10
2016,03,13,15,00,9.00
2016,03,13,15,01,9.00
2016,03,13,15,02,9.00
2016,03,13,15,03,9.00
2016,03,13,15,04,9.00
2016,03,13,15,05,9.00
2016,03,13,15,06,8.90
2016,03,13,15,07,8.90
2016,03,13,15,08,8.90
2016,03,13,15,09,8.80
2016,03,13,15,10,8.70
2016,03,13,15,11,8.70
2016,03,13,15,12,8.60
2016,03,13,15,13,8.60
2016,03,13,15,14,8.50
2016,03,13,15,15,8.50
2016,03,13,15,16,8.50
2016,03,13,15,17,8.40
2016,03,13,15,18,8.40
2016,03,13,15,19,8.40
2016,03,13,15,20,8.40
2016,03,13,15,21,8.50
2016,03,13,15,22,8.50
2016,03,13,15,23,8.60
2016,03,13,15,24,8.60
2016,03,13,15,25,8.60
2016,03,13,15,26,8.60
2016,03,13,15,27,8.60
2016,03,13,15,28,8.60
2016,03,13,15,29,8.70
2016,03,13,15,30,8.70
2016,03,13,15,31,8.70
2016,03,13,15,32,8.70
2016,03,13,15,33,8.70
2016,03,13,15,34,8.80
2016,03,13,15,35,8.80
2016,03,13,15,36,8.80
2016,03,13,15,37,8.80
2016,03,13,15,38,8.90
2016,03,13,15,39,8.90
2016,03,13,15,40,8.90
2016,03,13,15,41,9.00
2016,03,13,15,42,9.00
2016,03,13,15,43,9.10
2016,03,13,15,44,9.10
2016,03,13,15,45,9.10
2016,03,13,15,46,9.10
2016,03,13,15,47,9.20
2016,03,13,15,48,9.20
2016,03,13,15,49,9.20
2016,03,13,15,50,9.20
2016,03,13,15,51,9.30
2016,03,13,15,52,9.30
2016,03,13,15,53,9.30
2016,03,13,15,54,9.30
2016,03,13,15,55,9.40
2016,03,13,15,56,9.40
2016,03,13,15,57,9.40
2016,03,13,15,58,9.40
2016,03,13,15,59,9.40
2016,03,13,16,00,9.50
2016,03,13,16,01,9.50
2016,03,13,16,02,9.50
2016,03,13,16,03,9.50
2016,03,13,16,04,9.50
2016,03,13,16,05,9.50
2016,03,13,16,06,9.50
2016,03,13,16,07,9.40
2016,03,13,16,08,9.40
2016,03,13,16,09,9.40
2016,03,13,16,10,9.40
2016,03,13,16,11,9.40
2016,03,13,16,12,9.40
2016,03,13,16,13,9.40
2016,03,13,16,14,9.40
2016,03,13,16,15,9.40
2016,03,13,16,16,9.40
2016,03,13,16,17,9.40
2016,03,13,16,18,9.40
2016,03,13,16,19,9.40
2016,03,13,16,20,9.50
2016,03,13,16,21,9.50
2016,03,13,16,22,9.50
2016,03,13,16,23,9.60
2016,03,13,16,24,9.60
2016,03,13,16,25,9.60
2016,03,13,16,26,9.60
2016,03,13,16,27,9.50
2016,03,13,16,28,9.50
2016,03,13,16,29,9.40
2016,03,13,16,30,9.30
2016,03,13,16,31,9.20
2016,03,13,16,32,9.10
2016,03,13,16,33,9.00
2016,03,13,16,34,9.00
2016,03,13,16,35,8.90
2016,03,13,16,36,8.80
2016,03,13,16,37,8.60
2016,03,13,16,38,8.50
2016,03,13,16,39,8.40
2016,03,13,16,40,8.30
2016,03,13,16,41,8.20
2016,03,13,16,42,8.10
2016,03,13,16,43,8.00
2016,03,13,16,44,7.90
2016,03,13,16,45,7.80
2016,03,13,16,46,7.80
2016,03,13,16,47,7.80
2016,03,13,16,48,7.80
2016,03,13,16,49,7.80
2016,03,13,16,50,7.80
2016,03,13,16,51,7.80
2016,03,13,16,52,7.80
2016,03,13,16,53,7.80
2016,03,13,16,54,7.80
2016,03,13,16,55,7.80
2016,03,13,17,29,6.50
2016,03,13,17,30,6.50
2016,03,13,17,31,6.50
2016,03,13,17,32,6.50
2016,03,13,17,33,6.50
2016,03,13,17,34,6.50
2016,03,13,17,35,6.50
2016,03,13,17,36,6.50
2016,03,13,17,37,6.50
2016,03,13,17,38,6.50
2016,03,13,17,39,6.50
2016,03,13,17,40,6.50
